星链-31822 (STARLINK-31822 )

导读 | 豆包AI

STARLINK-31822是美国太空探索技术公司(SpaceX)星链星座的成员,于2024年5月13日发射,归属星链低轨互联网星座组网项目。星链系统旨在为全球提供高速卫星互联网接入服务,该卫星入轨后,进一步扩充了星座规模,提升全球覆盖与服务能力。

Basic Information
目录编号:
59752
目录名称:
STARLINK-31822
国际标识:
2024-090Y
轨道中心:
EARTH
卫星名称:
星链-31822
卫星全名:
星链-31822 (STARLINK-31822 )
卫星状态:
在轨 (已飞行718 天)
发射日期:
2024-05-13 UTC
国别 :
美国 (US)
星等 :
--
Orbit Information
数据来源 国际轨道数据
星历时间: 2026-04-30T16:36:30+0800
18小时前
查看轨道信息
半长轴: 6861.263km
偏心率: 0.0001904
轨道倾角: 43.004°
近地点辐角 267.529°
升交点赤经 251.578°
平近点角 92.534°
近地点: 481.819km
远地点: 484.433km
周期: 94.268分钟
每日圈数: 15.275544
Detailed Information
固有亮度:
5
最大亮度:
1.5
卫星平台:
Starlink v2.0 mini
覆盖范围:
全球
运营商:
太空探索技术公司
运营商所在国:
美国
制造商(研发单位):
太空探索技术公司
制造商所在国:
美国
使用方式:
暂无
Satellite Introduction
星链(Starlink)计划是由太空探索技术公司(SpaceX)提出的一个巨型低轨卫星互联网星座项目,计划在2019年至2024年间在太空搭建由约1.2万颗卫星组成的“星链”网络,其中1584颗将部署在地球上空550千米处的近地轨道,并从2020年开始工作。该卫星仍在工作。
2D Orbit Map
3D Orbit Map
Orbit Altitude Analysis Chart
Orbit Inclination Analysis Chart
Orbit Comprehensive Analysis Chart
View Comprehensive Chart